LOT3ML EPWA-EBBR

Flight info

Callsign LOT3ML
Flight time N/A
Altitude 38000
Route LOLSI DCT DIBLO DCT INDIG DCT GOVEN DCT MAG DCT TOLGI DCT ABAMI Z717 NEREL/N0396F240 T855 AGENI/N0364F180 T855 BATTY
Aircraft B38M/M-SADE2E3FGHIJ1RWXYZ/LB1

Departure

Time 2026-05-05 17:15
Airport Warsaw Chopin Airport (EPWA)

Arrival

Time N/A
Airport Brussels Airport (EBBR)
Time Latitude Longitude Altitude Speed Heading
2026-05-05 16:26 52.16999 20.97139 341 ft 0 kts 70°
2026-05-05 17:04 52.16994 20.97115 336 ft 4 kts 70°
2026-05-05 17:04 52.16985 20.97076 336 ft 2 kts 70°
2026-05-05 17:04 52.16979 20.97049 337 ft 3 kts 62°
2026-05-05 17:04 52.16974 20.97013 336 ft 4 kts 112°
2026-05-05 17:05 52.16991 20.96986 336 ft 4 kts 151°
2026-05-05 17:05 52.17013 20.96967 336 ft 3 kts 152°
2026-05-05 17:05 52.17017 20.96963 337 ft 0 kts 152°
2026-05-05 17:07 52.17016 20.96964 337 ft 0 kts 152°
2026-05-05 17:10 52.17014 20.96966 337 ft 2 kts 152°
2026-05-05 17:10 52.16989 20.96987 339 ft 6 kts 152°
2026-05-05 17:10 52.16944 20.97027 339 ft 9 kts 152°
2026-05-05 17:10 52.16884 20.97079 337 ft 11 kts 152°
2026-05-05 17:11 52.16809 20.97144 341 ft 13 kts 152°
2026-05-05 17:11 52.16752 20.97194 341 ft 15 kts 152°
2026-05-05 17:11 52.16660 20.97274 337 ft 13 kts 152°
2026-05-05 17:11 52.16586 20.97345 337 ft 12 kts 134°
2026-05-05 17:12 52.16546 20.97472 341 ft 14 kts 115°
2026-05-05 17:12 52.16488 20.97678 337 ft 14 kts 115°
2026-05-05 17:12 52.16462 20.97767 341 ft 12 kts 117°
2026-05-05 17:12 52.16390 20.97784 341 ft 13 kts 203°
2026-05-05 17:13 52.16314 20.97726 340 ft 8 kts 210°
2026-05-05 17:13 52.16307 20.97670 339 ft 1 kts 291°
2026-05-05 17:13 52.16307 20.97668 339 ft 0 kts 292°
2026-05-05 17:15 52.16385 20.97390 340 ft 64 kts 294°
2026-05-05 17:15 52.16669 20.96377 348 ft 130 kts 294°
2026-05-05 17:15 52.17125 20.94788 476 ft 167 kts 293°
2026-05-05 17:15 52.17620 20.93056 1139 ft 171 kts 291°
2026-05-05 17:16 52.18110 20.91255 1770 ft 179 kts 287°
2026-05-05 17:16 52.18520 20.89270 2211 ft 194 kts 272°
2026-05-05 17:16 52.18464 20.87048 2691 ft 204 kts 255°
2026-05-05 17:16 52.18159 20.84756 3433 ft 211 kts 255°
2026-05-05 17:17 52.18105 20.82285 4111 ft 227 kts 274°
2026-05-05 17:17 52.18415 20.79731 4943 ft 234 kts 277°
2026-05-05 17:17 52.18778 20.77092 5665 ft 246 kts 279°
2026-05-05 17:17 52.19183 20.74277 5943 ft 260 kts 279°
2026-05-05 17:18 52.19567 20.71364 6103 ft 263 kts 272°
2026-05-05 17:18 52.19469 20.68402 6089 ft 263 kts 264°
2026-05-05 17:18 52.19435 20.65468 6882 ft 261 kts 266°
2026-05-05 17:18 52.19401 20.62475 7713 ft 266 kts 265°
2026-05-05 17:19 52.19357 20.59427 8513 ft 272 kts 264°
2026-05-05 17:19 52.19303 20.56308 9362 ft 275 kts 264°
2026-05-05 17:19 52.19245 20.53163 10123 ft 282 kts 264°
2026-05-05 17:19 52.19181 20.49869 10508 ft 300 kts 265°
2026-05-05 17:20 52.19111 20.46384 10975 ft 314 kts 265°
2026-05-05 17:20 52.19037 20.42800 11706 ft 317 kts 265°
2026-05-05 17:20 52.18962 20.39185 12551 ft 319 kts 265°
2026-05-05 17:20 52.18884 20.35556 13373 ft 321 kts 265°
2026-05-05 17:21 52.18806 20.31902 14121 ft 324 kts 265°
2026-05-05 17:21 52.18726 20.28215 14814 ft 328 kts 265°
2026-05-05 17:21 52.18644 20.24526 15474 ft 332 kts 266°
2026-05-05 17:22 52.18471 20.16919 16776 ft 340 kts 266°
2026-05-05 17:22 52.18382 20.13034 17415 ft 344 kts 266°
2026-05-05 17:22 52.18289 20.09118 18046 ft 348 kts 267°
2026-05-05 17:22 52.18194 20.05159 18562 ft 352 kts 266°
2026-05-05 17:23 52.18097 20.01149 19091 ft 355 kts 266°
2026-05-05 17:23 52.17998 19.97122 19630 ft 358 kts 266°
2026-05-05 17:23 52.17897 19.93054 20158 ft 360 kts 266°
2026-05-05 17:23 52.17794 19.88960 20685 ft 363 kts 266°
2026-05-05 17:24 52.17507 19.84869 21209 ft 365 kts 261°
2026-05-05 17:24 52.17300 19.80731 21715 ft 369 kts 271°
2026-05-05 17:24 52.17389 19.76539 22253 ft 371 kts 270°
2026-05-05 17:24 52.17415 19.72312 22778 ft 374 kts 269°
2026-05-05 17:25 52.17423 19.68049 23324 ft 377 kts 269°
2026-05-05 17:25 52.17422 19.65211 23634 ft 379 kts 269°
2026-05-05 17:25 52.17409 19.59486 24247 ft 383 kts 269°
2026-05-05 17:25 52.17394 19.55137 24726 ft 385 kts 269°
2026-05-05 17:26 52.17377 19.50745 25209 ft 388 kts 269°
2026-05-05 17:26 52.17358 19.46341 25675 ft 390 kts 269°
2026-05-05 17:26 52.17337 19.41893 26142 ft 393 kts 269°
2026-05-05 17:26 52.17314 19.37431 26595 ft 395 kts 269°
2026-05-05 17:27 52.17290 19.32937 27039 ft 398 kts 269°
2026-05-05 17:27 52.17263 19.28418 27473 ft 400 kts 269°
2026-05-05 17:27 52.17235 19.23871 27923 ft 403 kts 268°
2026-05-05 17:27 52.17204 19.19282 28336 ft 405 kts 268°
2026-05-05 17:28 52.17172 19.14672 28735 ft 408 kts 268°
2026-05-05 17:28 52.17138 19.10096 29080 ft 412 kts 268°
2026-05-05 17:28 52.17102 19.05421 29470 ft 414 kts 268°
2026-05-05 17:28 52.17063 19.00722 29898 ft 416 kts 268°
2026-05-05 17:29 52.17023 18.95989 30262 ft 417 kts 268°
2026-05-05 17:29 52.16980 18.91236 30616 ft 419 kts 268°
2026-05-05 17:29 52.16936 18.86493 30974 ft 420 kts 268°
2026-05-05 17:29 52.16889 18.81711 31329 ft 422 kts 268°
2026-05-05 17:30 52.16840 18.76929 31676 ft 423 kts 268°
2026-05-05 17:30 52.16789 18.72123 32011 ft 425 kts 269°
2026-05-05 17:30 52.16736 18.67307 32358 ft 426 kts 269°
2026-05-05 17:30 52.16681 18.62486 32769 ft 425 kts 269°
2026-05-05 17:31 52.16625 18.57741 33260 ft 423 kts 269°
2026-05-05 17:31 52.16567 18.52958 33750 ft 421 kts 269°
2026-05-05 17:31 52.16506 18.48196 34182 ft 419 kts 269°
2026-05-05 17:31 52.16444 18.43464 34542 ft 418 kts 269°
2026-05-05 17:32 52.16380 18.38727 34876 ft 418 kts 268°
2026-05-05 17:32 52.16315 18.33991 35192 ft 418 kts 268°
2026-05-05 17:32 52.16247 18.29255 35511 ft 418 kts 268°
2026-05-05 17:32 52.16178 18.24527 35823 ft 418 kts 268°
2026-05-05 17:33 52.16107 18.19802 36130 ft 418 kts 268°
2026-05-05 17:33 52.16035 18.15124 36416 ft 418 kts 268°
2026-05-05 17:33 52.15960 18.10393 36699 ft 418 kts 268°
2026-05-05 17:33 52.15884 18.05668 36984 ft 418 kts 268°
2026-05-05 17:34 52.15805 18.00936 37261 ft 417 kts 268°
2026-05-05 17:34 52.15724 17.96214 37557 ft 417 kts 268°
2026-05-05 17:34 52.15642 17.91500 37820 ft 417 kts 268°
2026-05-05 17:35 52.15472 17.82076 37796 ft 414 kts 268°
2026-05-05 17:35 52.15295 17.72678 37808 ft 414 kts 268°
2026-05-05 17:36 52.15113 17.63357 37811 ft 414 kts 268°
2026-05-05 17:36 52.14921 17.53968 37810 ft 414 kts 267°
2026-05-05 17:37 52.14722 17.44581 37827 ft 414 kts 267°
2026-05-05 17:37 52.14516 17.35245 37810 ft 412 kts 267°
2026-05-05 17:38 52.14304 17.25913 37813 ft 412 kts 267°
2026-05-05 17:38 52.14085 17.16636 37810 ft 412 kts 267°
2026-05-05 17:39 52.13857 17.07289 37816 ft 412 kts 267°
2026-05-05 17:39 52.13622 16.97966 37815 ft 412 kts 267°
2026-05-05 17:40 52.13380 16.88646 37818 ft 411 kts 267°